[[{"header":{"parameterUnit":"m.s-1","parameterCategory":1,"la1":30.2991,"la2":30.254,"lo1":-89.0895,"lo2":-89.0444,"dy":0.0017,"dx":0.0017,"nx":28,"ny":28,"refTime":"2025-02-08T09:00:00:Z","depth":0,"parameterNumber":2,"parameterNumberName":"U-component_of_WINDS"},"data":[0,0,0,0,0,0,0,0,0,0,0,0,0,0,0,0,0,0,0,0,0,0,0,0,0,0,0,0,0,0,0,0,0,0,0,0,0,0,0,0,0,0,0,0,0,0,0,0,0,0,0,0,0,0,0,0,0,0,-1.4179,-1.4178,0,-1.4127,-1.4126,-1.4126,-1.4082,-1.4082,-1.4082,-1.4081,-1.4026,-1.4025,-1.4024,0,0,0,0,0,0,0,0,0,0,0,0,0,-1.424,-1.4239,-1.4179,-1.4178,-1.4178,-1.4127,-1.4126,-1.4125,-1.4083,-1.4082,-1.4081,-1.4081,-1.4027,-1.4026,-1.4024,0,0,0,0,0,0,0,0,0,0,0,0,0,-1.4203,-1.4239,-1.4179,-1.415,-1.4147,-1.4127,-1.4126,-1.4125,-1.4083,-1.4082,-1.4081,-1.4081,-1.4027,-1.4026,-1.4024,-1.4028,0,0,-1.4019,-1.4019,0,0,0,0,0,0,0,0,-1.4205,-1.4201,-1.4155,-1.4152,-1.4149,-1.411,-1.4128,-1.4093,-1.4083,-1.4107,-1.4081,-1.408,-1.4055,-1.4051,-1.4043,-1.4026,-1.4023,-1.4019,-1.4018,-1.4018,-1.4017,0,0,0,0,0,0,0,-1.4208,-1.4203,-1.4158,-1.4154,-1.4151,-1.4139,-1.4133,-1.4121,-1.4085,-1.4105,-1.4102,-1.4096,-1.4053,-1.4044,-1.4041,-1.4022,-1.4019,-1.4018,-1.4017,-1.4016,-1.4004,-1.4005,0,0,0,0,0,0,-1.4215,-1.4205,-1.416,-1.4157,-1.4176,-1.4139,-1.4132,-1.4123,-1.4085,-1.4079,-1.4097,-1.4094,-1.4047,-1.4043,-1.4039,-1.404,-1.4018,-1.4016,-1.4015,-1.4004,-1.4004,-1.4005,0,0,0,0,0,0,-1.4217,-1.4212,-1.4162,-1.418,-1.4173,-1.4138,-1.4129,-1.4123,-1.4114,-1.4079,-1.4073,-1.4094,-1.4047,-1.4041,-1.4031,-1.4037,-1.4016,-1.4014,-1.4003,-1.4004,-1.4005,-1.4042,0,0,0,0,0,0,-1.4219,-1.4212,-1.4214,-1.4181,-1.4172,-1.4155,-1.4129,-1.4122,-1.4111,-1.4108,-1.4075,-1.4069,-1.4046,-1.4033,-1.4029,-1.4035,-1.4013,-1.4002,-1.4003,-1.4005,-1.404,-1.4044,-1.4048,0,0,0,0,0,-1.4221,-1.4227,-1.4214,-1.4209,-1.4174,-1.4156,-1.4151,-1.4124,-1.4112,-1.4113,-1.4091,-1.407,-1.4038,-1.4033,-1.4028,-1.4033,-1.4002,-1.4003,-1.4004,-1.4039,-1.4044,-1.4048,0,0,0,0,0,0,-1.4261,-1.4222,-1.4208,-1.4203,-1.4183,-1.4149,-1.4149,-1.413,-1.4113,-1.4111,-1.4077,-1.407,-1.4063,-1.4047,-1.4043,-1.4034,-1.4017,-1.4017,-1.4045,-1.4049,-1.4053,-1.4056,-1.4012,0,0,0,0,0,-1.427,-1.4259,-1.4225,-1.4224,-1.4215,-1.4184,-1.4175,-1.4156,-1.4134,-1.4125,-1.4102,-1.4082,-1.4066,-1.4057,-1.4041,-1.4038,-1.403,-1.4039,-1.4043,-1.4046,-1.4047,-1.4042,-1.4046,-1.401,-1.401,-1.401,0,0,-1.4287,-1.4264,-1.4259,-1.4232,-1.4214,-1.4203,-1.4177,-1.4167,-1.4158,-1.4124,-1.4112,-1.4095,-1.4069,-1.4062,-1.4058,-1.4048,-1.4055,-1.4048,-1.4051,-1.4049,-1.4044,-1.4047,-1.405,-1.4011,-1.401,-1.401,0,0,-1.4312,-1.4295,-1.4291,-1.4274,-1.4248,-1.4227,-1.4226,-1.4195,-1.4181,-1.417,-1.4143,-1.4132,-1.4107,-1.409,-1.4078,-1.4096,-1.4076,-1.4092,-1.4111,-1.4107,-1.411,-1.4112,-1.4117,-1.412,-1.4092,-1.4093,-1.4093,0,-1.4337,-1.4319,-1.4291,-1.4282,-1.427,-1.4239,-1.4235,-1.422,-1.419,-1.4182,-1.4172,-1.4139,-1.412,-1.4108,-1.4112,-1.4104,-1.4101,-1.4095,-1.4112,-1.4114,-1.4116,-1.412,-1.4122,-1.4095,-1.4094,-1.4094,-1.4094,0,-1.435,-1.4338,-1.4339,-1.431,-1.4299,-1.4292,-1.4262,-1.4254,-1.4236,-1.4216,-1.4203,-1.4179,-1.4158,-1.4154,-1.4136,-1.4138,-1.4133,-1.4118,-1.41,-1.4121,-1.4125,-1.4126,-1.4097,-1.4097,-1.4096,-1.4096,0,0,-1.4399,-1.4355,-1.4355,-1.4341,-1.431,-1.43,-1.4292,-1.4271,-1.4263,-1.4244,-1.4235,-1.4215,-1.42,-1.4187,-1.4167,-1.4164,-1.4178,-1.4149,-1.4147,-1.4154,-1.4177,-1.4188,-1.419,-1.4165,-1.4165,-1.4165,-1.4179,0,-1.4418,-1.4401,-1.4375,-1.4367,-1.4355,-1.4325,-1.4318,-1.4298,-1.4279,-1.4266,-1.4245,-1.423,-1.4213,-1.4204,-1.42,-1.4177,-1.4182,-1.4176,-1.4155,-1.4155,-1.4161,-1.4192,-1.4203,-1.4217,-1.418,-1.418,-1.4181,0,-1.4437,-1.4419,-1.441,-1.4378,-1.4373,-1.4366,-1.4344,-1.4333,-1.4309,-1.4295,-1.428,-1.4258,-1.4247,-1.4231,-1.4215,-1.4211,-1.4201,-1.4189,-1.4189,-1.4185,-1.4168,-1.4187,-1.4221,-1.4223,-1.4183,-1.4183,-1.4182,0,-1.4472,-1.4445,-1.4436,-1.4425,-1.4389,-1.4385,-1.437,-1.4345,-1.4334,-1.4314,-1.4306,-1.4286,-1.4275,-1.4259,-1.4232,-1.4224,-1.4218,-1.4201,-1.4205,-1.4206,-1.4204,-1.4205,-1.4236,-1.4201,-1.4201,-1.4201,-1.4201,0,-1.4495,-1.449,-1.4451,-1.4445,-1.4438,-1.4408,-1.4402,-1.4384,-1.4362,-1.4351,-1.4325,-1.4315,-1.4281,-1.4267,-1.4246,-1.4235,-1.423,-1.4218,-1.4212,-1.422,-1.4221,-1.4212,-1.4209,-1.4201,-1.4201,-1.4201,-1.4201,0,-1.4532,-1.4506,-1.4493,-1.4459,-1.4451,-1.4447,-1.4418,-1.4411,-1.439,-1.4377,-1.4372,-1.434,-1.4322,-1.4295,-1.4269,-1.4255,-1.4246,-1.4238,-1.4254,-1.425,-1.4256,-1.4255,-1.4281,-1.4282,-1.4248,-1.4248,-1.4249,0,-1.4548,-1.4543,-1.4509,-1.45,-1.4485,-1.4472,-1.446,-1.443,-1.4419,-1.4391,-1.4387,-1.4367,-1.4349,-1.4322,-1.4296,-1.4276,-1.4266,-1.4276,-1.4262,-1.427,-1.4264,-1.4264,-1.4263,-1.4279,-1.4279,-1.428,-1.428,0,-1.4578,-1.4565,-1.4549,-1.4528,-1.4515,-1.4497,-1.4478,-1.4472,-1.4439,-1.4427,-1.4409,-1.4395,-1.4369,-1.4349,-1.4325,-1.4308,-1.4288,-1.4285,-1.4284,-1.4291,-1.43,-1.4294,-1.4261,-1.4284,-1.4284,-1.4283,-1.4283,-1.4283,-1.4604,-1.4597,-1.4572,-1.4555,-1.4538,-1.4521,-1.4512,-1.449,-1.4474,-1.445,-1.4434,-1.4416,-1.4391,-1.4357,-1.4342,-1.4327,-1.4318,-1.4318,-1.4318,-1.4318,-1.432,-1.4304,-1.4322,-1.4322,-1.4322,-1.4322,-1.4322,0,-1.4631,-1.4613,-1.4598,-1.4572,-1.4558,-1.4541,-1.4519,-1.4509,-1.4494,-1.4472,-1.4455,-1.4434,-1.4414,-1.4387,-1.4365,-1.4358,-1.4349,-1.4354,-1.4353,-1.4349,-1.4329,-1.4331,-1.4362,-1.4362,-1.4362,-1.4362,-1.4362,-1.4362,-1.4644,-1.4632,-1.4616,-1.4595,-1.4577,-1.456,-1.4549,-1.4532,-1.4515,-1.4492,-1.4475,-1.4458,-1.4433,-1.441,-1.4391,-1.4383,-1.4376,-1.4383,-1.4373,-1.4354,-1.4351,-1.4347,-1.4349,-1.4382,-1.4382,-1.4393,-1.4393,-1.4393]},{"header":{"parameterUnit":"m.s-1","parameterCategory":1,"la1":30.2991,"la2":30.254,"lo1":-89.0895,"lo2":-89.0444,"dy":0.0017,"dx":0.0017,"nx":28,"ny":28,"refTime":"2025-02-08T09:00:00:Z","depth":0,"parameterNumber":3,"parameterNumberName":"V-component_of_WINDS"},"data":[0,0,0,0,0,0,0,0,0,0,0,0,0,0,0,0,0,0,0,0,0,0,0,0,0,0,0,0,0,0,0,0,0,0,0,0,0,0,0,0,0,0,0,0,0,0,0,0,0,0,0,0,0,0,0,0,0,0,3.4393,3.4395,0,3.4544,3.4546,3.4548,3.4578,3.4577,3.4576,3.4575,3.4728,3.4733,3.4738,0,0,0,0,0,0,0,0,0,0,0,0,0,3.4129,3.4134,3.4393,3.4395,3.4397,3.4544,3.4546,3.4548,3.4578,3.4577,3.4575,3.4574,3.4727,3.4733,3.4739,0,0,0,0,0,0,0,0,0,0,0,0,0,3.4258,3.4135,3.4392,3.4429,3.4434,3.4544,3.4546,3.4549,3.4579,3.4577,3.4575,3.4573,3.4725,3.4732,3.474,3.4823,0,0,3.4763,3.4767,0,0,0,0,0,0,0,0,3.4251,3.4268,3.4422,3.4427,3.4433,3.4541,3.451,3.4641,3.4579,3.4524,3.4575,3.4573,3.4667,3.4679,3.4712,3.483,3.4836,3.4764,3.4769,3.4772,3.4774,0,0,0,0,0,0,0,3.4242,3.4262,3.4453,3.4424,3.4431,3.4438,3.4455,3.4535,3.4603,3.4528,3.4531,3.4549,3.467,3.4704,3.4716,3.4839,3.4764,3.4771,3.4776,3.4779,3.5035,3.5038,0,0,0,0,0,0,3.4226,3.4254,3.4448,3.4457,3.4336,3.4444,3.4463,3.4508,3.4603,3.4615,3.455,3.4549,3.4692,3.4706,3.4721,3.4827,3.4772,3.4779,3.4784,3.5033,3.5036,3.5038,0,0,0,0,0,0,3.4221,3.4244,3.4442,3.4356,3.4382,3.4451,3.4501,3.4512,3.4546,3.4619,3.4631,3.4573,3.4691,3.471,3.4798,3.4833,3.4783,3.479,3.5031,3.5034,3.5037,3.5038,0,0,0,0,0,0,3.4213,3.4241,3.4274,3.4357,3.4387,3.4516,3.4503,3.4516,3.456,3.4561,3.4643,3.4655,3.4691,3.4786,3.4806,3.4843,3.4796,3.5028,3.5032,3.5036,3.5036,3.5041,3.5046,0,0,0,0,0,3.4203,3.4267,3.4275,3.4298,3.4429,3.4518,3.4535,3.4576,3.4562,3.4596,3.4643,3.4653,3.4825,3.4795,3.4817,3.4857,3.5026,3.5031,3.5036,3.5033,3.504,3.5046,0,0,0,0,0,0,3.4185,3.4278,3.4289,3.4381,3.4442,3.4523,3.4567,3.4581,3.4646,3.4644,3.4691,3.4709,3.4795,3.4834,3.4799,3.4944,3.4925,3.4934,3.4915,3.4923,3.4928,3.4918,3.4802,0,0,0,0,0,3.4191,3.4257,3.4335,3.4409,3.4439,3.4497,3.4538,3.4564,3.4628,3.4654,3.4707,3.4769,3.4838,3.4882,3.4948,3.504,3.506,3.5079,3.5084,3.5088,3.5097,3.5151,3.5161,3.5054,3.5054,3.5054,0,0,3.4206,3.4265,3.4303,3.4407,3.4457,3.4524,3.4519,3.4589,3.464,3.4664,3.4752,3.4793,3.4865,3.4956,3.4999,3.4992,3.513,3.5094,3.5097,3.5104,3.5157,3.5167,3.5176,3.5058,3.5057,3.5056,0,0,3.4268,3.4318,3.4387,3.4437,3.4514,3.4552,3.4569,3.4649,3.4678,3.4766,3.4786,3.4847,3.4963,3.5015,3.5056,3.5138,3.5151,3.5158,3.5187,3.5239,3.5248,3.5256,3.5288,3.5299,3.5166,3.5166,3.5166,0,3.4276,3.4379,3.442,3.4491,3.4536,3.4562,3.4633,3.4679,3.4773,3.4804,3.4794,3.4943,3.4993,3.5098,3.5118,3.515,3.5171,3.515,3.5243,3.5252,3.5259,3.5291,3.5303,3.5166,3.5166,3.5166,3.5166,0,3.4387,3.4457,3.4504,3.4596,3.4646,3.4716,3.4768,3.4814,3.4835,3.4875,3.4966,3.5027,3.5108,3.5134,3.5154,3.5243,3.5236,3.5234,3.5217,3.527,3.53,3.5312,3.5167,3.5167,3.5167,3.5167,0,0,3.4442,3.4557,3.4573,3.4617,3.4703,3.4759,3.483,3.491,3.495,3.5013,3.5076,3.5174,3.5174,3.5221,3.5247,3.5293,3.5358,3.5286,3.5288,3.53,3.5462,3.5466,3.5479,3.5366,3.5368,3.537,3.5457,0,3.4517,3.4647,3.4686,3.4796,3.4863,3.4888,3.4951,3.5011,3.505,3.5113,3.5155,3.5226,3.5218,3.5247,3.5293,3.534,3.5392,3.5334,3.5426,3.5429,3.5411,3.5494,3.5498,3.5577,3.5469,3.5471,3.5472,0,3.4621,3.4689,3.4806,3.4886,3.4916,3.4971,3.5049,3.5108,3.5177,3.5202,3.5255,3.5278,3.5355,3.5331,3.5438,3.5398,3.5437,3.5466,3.547,3.5483,3.5456,3.5512,3.5603,3.5617,3.5491,3.5489,3.5488,0,3.4655,3.4774,3.486,3.4896,3.499,3.503,3.5071,3.5138,3.5184,3.5251,3.5283,3.5357,3.5399,3.5456,3.5499,3.5477,3.5603,3.5582,3.5628,3.5627,3.5656,3.5654,3.5758,3.5676,3.5675,3.5675,3.5675,0,3.4736,3.4807,3.4877,3.493,3.5011,3.5055,3.5134,3.5176,3.5235,3.5298,3.5322,3.538,3.5432,3.5497,3.553,3.5616,3.5633,3.5657,3.5666,3.5657,3.5654,3.5686,3.5683,3.5678,3.5678,3.5677,3.5677,0,3.4788,3.4837,3.4933,3.5015,3.5038,3.5094,3.5165,3.5217,3.5257,3.5336,3.5356,3.5419,3.5497,3.5544,3.5642,3.5665,3.576,3.5765,3.5738,3.5742,3.5787,3.5783,3.5917,3.5938,3.5838,3.5839,3.584,0,3.4838,3.4894,3.4983,3.5027,3.5069,3.5139,3.5187,3.5232,3.5281,3.5365,3.5408,3.5487,3.5554,3.5677,3.5731,3.5806,3.5815,3.5857,3.5827,3.5817,3.582,3.5818,3.5825,3.5863,3.5864,3.5864,3.5865,0,3.4924,3.4946,3.5014,3.5092,3.5149,3.5212,3.5275,3.5309,3.5365,3.5419,3.55,3.5551,3.5652,3.5732,3.5812,3.5854,3.587,3.5874,3.5889,3.5882,3.5866,3.5879,3.5755,3.5871,3.5871,3.587,3.587,3.587,3.4979,3.5031,3.5102,3.5179,3.5231,3.5289,3.5344,3.5391,3.5459,3.5546,3.5568,3.5653,3.5722,3.5832,3.5876,3.5943,3.5937,3.5958,3.5964,3.597,3.5973,3.5852,3.5957,3.5957,3.5957,3.5957,3.5957,0,3.5069,3.5116,3.5186,3.5274,3.5334,3.5343,3.5414,3.5464,3.5539,3.5601,3.5667,3.576,3.5838,3.5898,3.5977,3.602,3.6029,3.6039,3.6039,3.6049,3.5972,3.5952,3.6031,3.6031,3.6031,3.6031,3.6031,3.6031,3.5123,3.5213,3.5243,3.5359,3.5405,3.549,3.553,3.5585,3.5635,3.5739,3.5804,3.5843,3.5905,3.599,3.6062,3.6077,3.6107,3.6117,3.6134,3.6062,3.6054,3.6046,3.6028,3.6122,3.6122,3.6206,3.6207,3.6207]}]]